FW3211 Weather Reports


Display with metric or nautical units.
time (UTC)temp
F
wind
direction
speed
MPH
gust
MPH
rain 1hr
in
rain 24hr
in
rain mn
in
humidity
%
barometer
mb
20260505225909 56 311 1.0 2.0 0.00 1.36 0.00 74 1012.8
20260505225407 56 311 1.0 2.0 0.00 1.36 0.00 74 1012.8
20260505224907 56 311 1.0 3.0 0.00 1.36 0.00 74 1012.9
20260505224411 56 311 1.0 3.0 0.00 1.36 0.00 74 1013.0
20260505223909 56 311 2.0 3.0 0.00 1.36 0.00 74 1013.1
20260505223408 56 310 2.0 3.0 0.00 1.36 0.00 74 1013.2
20260505222908 56 328 1.0 3.0 0.00 1.36 0.00 74 1013.2
20260505222659 56 328 1.0 2.0 0.00 1.36 0.00 74 1013.3
20260505221906 56 328 1.0 2.0 0.00 1.36 0.00 74 1013.3
20260505221407 56 328 1.0 2.0 0.00 1.36 0.00 74 1013.3
20260505220905 56 328 1.0 3.0 0.00 1.36 0.00 74 1013.3
20260505220404 56 328 1.0 3.0 0.00 1.36 0.00 74 1013.2
20260505215905 56 328 2.0 3.0 0.00 1.36 1.36 74 1013.2
20260505215406 56 328 2.0 4.0 0.00 1.36 1.36 74 1013.3
20260505215154 56 288 2.0 4.0 0.00 1.36 1.36 74 1013.4
20260505214405 56 288 2.0 4.0 0.00 1.36 1.36 75 1013.4
20260505214152 56 323 2.0 4.0 0.00 1.36 1.36 75 1013.4
20260505213402 56 323 2.0 4.0 0.00 1.36 1.36 75 1013.5
20260505212907 56 334 2.0 3.0 0.00 1.36 1.36 74 1013.5
20260505212407 56 334 2.0 3.0 0.00 1.36 1.36 74 1013.5
20260505211904 56 292 2.0 4.0 0.00 1.36 1.36 74 1013.5
20260505211405 56 291 2.0 4.0 0.00 1.36 1.36 74 1013.4
20260505210955 56 331 2.0 3.0 0.00 1.36 1.36 74 1013.6
20260505210941 56 330 2.0 3.0 0.00 1.36 1.36 74 1013.5
20260505210148 56 359 2.0 3.0 0.00 1.36 1.36 74 1013.6
20260505205653 57 303 1.0 3.0 0.00 1.36 1.36 74 1013.7
20260505204907 57 303 1.0 2.0 0.00 1.36 1.36 74 1013.7
20260505204641 57 303 1.0 2.0 0.00 1.36 1.36 74 1013.8
20260505203906 57 303 1.0 3.0 0.00 1.36 1.36 74 1013.9
20260505203404 57 303 2.0 3.0 0.00 1.36 1.36 74 1013.9
20260505202905 57 303 2.0 3.0 0.00 1.36 1.36 74 1014.0
20260505202405 57 292 1.0 4.0 0.00 1.36 1.36 74 1014.0
20260505201906 57 284 1.0 4.0 0.00 1.36 1.36 73 1014.0
20260505201402 57 257 1.0 3.0 0.00 1.36 1.36 73 1014.1
20260505201207 57 234 1.0 3.0 0.00 1.36 1.36 73 1014.1
20260505200401 57 235 1.0 4.0 0.00 1.36 1.36 73 1014.1
20260505195858 58 226 1.0 4.0 0.00 1.36 1.36 73 1014.0
20260505195355 58 157 1.0 4.0 0.00 1.36 1.36 73 1014.0
20260505194856 58 220 1.0 4.0 0.00 1.36 1.36 73 1014.0
20260505194358 58 210 1.0 4.0 0.00 1.36 1.36 73 1013.9
20260505193857 58 297 1.0 3.0 0.00 1.36 1.36 73 1013.8
20260505193355 57 297 1.0 3.0 0.00 1.36 1.36 73 1013.8
20260505193143 57 224 1.0 7.0 0.00 1.36 1.36 73 1013.8
20260505192353 57 201 1.0 7.0 0.00 1.36 1.36 73 1013.8
20260505191856 57 280 1.0 4.0 0.00 1.36 1.36 73 1013.7
20260505191354 57 280 1.0 4.0 0.00 1.36 1.36 73 1013.7
20260505190855 57 222 1.0 3.0 0.00 1.36 1.36 73 1013.7
20260505190353 58 307 1.0 7.0 0.00 1.36 1.36 73 1013.6
20260505185856 58 308 1.0 7.0 0.00 1.36 1.36 72 1013.6
20260505185354 58 208 1.0 4.0 0.00 1.36 1.36 72 1013.6
20260505184854 58 276 1.0 5.0 0.00 1.36 1.36 73 1013.6
20260505184354 58 238 2.0 7.0 0.00 1.36 1.36 72 1013.6
20260505183854 58 170 1.0 7.0 0.00 1.36 1.36 72 1013.7
20260505183639 58 144 1.0 5.0 0.00 1.36 1.36 72 1013.7
20260505182851 58 144 1.0 5.0 0.00 1.36 1.36 72 1013.6
20260505182353 58 125 1.0 3.0 0.00 1.36 1.36 73 1013.7
20260505182136 58 202 1.0 3.0 0.00 1.36 1.36 73 1013.6
20260505181351 58 201 1.0 4.0 0.00 1.36 1.36 73 1013.6
20260505180852 58 91 1.0 4.0 0.00 1.36 1.36 73 1013.6
20260505180352 58 115 2.0 4.0 0.00 1.36 1.36 72 1013.7
20260505180144 58 139 2.0 6.0 0.00 1.36 1.36 72 1013.7
20260505175631 58 116 1.0 6.0 0.00 1.36 1.36 73 1013.6
20260505174850 58 152 1.0 4.0 0.00 1.36 1.36 72 1013.5
20260505174349 58 145 1.0 3.0 0.00 1.36 1.36 72 1013.5
20260505173847 58 145 1.0 5.0 0.00 1.36 1.36 72 1013.6
20260505173345 58 144 2.0 6.0 0.00 1.36 1.36 71 1013.6
20260505173130 58 147 2.0 6.0 0.00 1.36 1.36 71 1013.6
20260505172345 58 150 2.0 5.0 0.00 1.36 1.36 71 1013.5
20260505172137 58 243 2.0 5.0 0.00 1.36 1.36 71 1013.5
20260505171346 59 156 2.0 5.0 0.00 1.36 1.36 71 1013.5
20260505170852 59 156 2.0 6.0 0.00 1.36 1.36 71 1013.4
20260505170417 59 181 2.0 6.0 0.00 1.36 1.36 71 1013.5
20260505170406 59 160 2.0 6.0 0.00 1.36 1.36 71 1013.5
20260505165344 59 160 2.0 6.0 0.00 1.36 1.36 71 1013.4
20260505164844 59 142 1.0 6.0 0.00 1.36 1.36 71 1013.5
20260505164339 59 139 2.0 4.0 0.00 1.36 1.36 71 1013.4
20260505163840 59 128 1.0 5.0 0.00 1.36 1.36 72 1013.5
20260505163341 59 149 2.0 5.0 0.00 1.36 1.36 72 1013.5
20260505162843 59 172 2.0 6.0 0.00 1.36 1.36 72 1013.5
20260505162339 59 204 2.0 6.0 0.00 1.36 1.36 72 1013.5
20260505161839 59 160 1.0 4.0 0.00 1.36 1.36 72 1013.6
20260505161339 59 168 1.0 4.0 0.00 1.36 1.36 72 1013.7
20260505160836 59 180 1.0 6.0 0.00 1.36 1.36 71 1013.7
20260505160622 59 186 1.0 6.0 0.00 1.36 1.36 72 1013.7
20260505153333 59 166 2.0 4.0 0.00 1.36 1.36 71 1013.9
20260505152833 59 198 2.0 4.0 0.00 1.36 1.36 71 1013.9
20260505152617 59 108 1.0 4.0 0.00 1.36 1.36 71 1013.9
20260505151834 59 216 2.0 4.0 0.00 1.36 1.36 71 1013.9
20260505151335 59 145 2.0 4.0 0.00 1.36 1.36 71 1013.9
20260505150833 59 138 2.0 4.0 0.00 1.36 1.36 71 1013.8
20260505150335 60 194 2.0 4.0 0.00 1.36 1.36 71 1013.8
20260505140337 59 189 2.0 5.0 0.00 1.36 1.36 72 1013.8
20260505124813 59 200 3.0 7.0 0.00 1.36 1.36 72 1014.0
20260505124313 60 171 2.0 8.0 0.00 1.36 1.36 73 1014.0
20260505124118 60 197 3.0 8.0 0.00 1.36 1.36 73 1014.0
20260505123309 60 83 3.0 8.0 0.00 1.36 1.36 75 1014.0
20260505122810 59 206 2.0 6.0 0.00 1.36 1.36 76 1014.0
20260505122306 59 171 3.0 7.0 0.00 1.36 1.36 77 1014.0
20260505122047 59 185 3.0 7.0 0.00 1.36 1.36 78 1014.0
20260505121306 59 168 3.0 9.0 0.00 1.36 1.36 78 1013.9
20260505120806 58 175 3.0 9.0 0.00 1.36 1.36 78 1014.0
20260505120304 58 191 3.0 8.0 0.00 1.36 1.36 77 1014.0
20260505115804 58 139 3.0 8.0 0.00 1.36 1.36 76 1013.9
20260505115306 58 174 3.0 9.0 0.00 1.36 1.36 76 1014.0
20260505114804 58 99 3.0 9.0 0.00 1.36 1.36 76 1013.9
20260505114304 58 187 3.0 9.0 0.00 1.36 1.36 76 1013.9
20260505113804 58 83 2.0 8.0 0.00 1.36 1.36 76 1013.9
20260505113622 58 144 2.0 10.0 0.00 1.36 1.36 76 1014.0
20260505113618 58 131 3.0 10.0 0.00 1.36 1.36 76 1014.0
20260505112305 58 158 2.0 9.0 0.00 1.36 1.36 76 1014.0
20260505111803 58 109 2.0 5.0 0.00 1.36 1.36 76 1013.9
20260505111304 58 179 3.0 8.0 0.00 1.36 1.36 76 1013.9
20260505110811 58 135 4.0 10.0 0.00 1.36 1.36 74 1013.8
20260505110259 58 133 4.0 10.0 0.00 1.36 1.36 74 1013.8
20260505101755 59 156 2.0 7.0 0.00 1.36 1.36 72 1013.6
20260505101248 59 156 2.0 7.0 0.00 1.36 1.36 72 1013.6
20260505100751 59 209 2.0 5.0 0.00 1.36 1.36 72 1013.6
20260505100344 59 211 1.0 4.0 0.00 1.36 1.36 79 1013.5
20260505100324 59 211 1.0 4.0 0.00 1.36 1.36 75 1013.6
20260505095538 58 203 1.0 4.0 0.00 1.36 1.36 80 1013.5
20260505094743 58 214 1.0 4.0 0.00 1.36 1.36 80 1013.4
20260505094243 57 214 1.0 4.0 0.00 1.36 1.36 81 1013.4
20260505093743 57 326 1.0 2.0 0.00 1.36 1.36 81 1013.4
20260505093246 57 326 1.0 2.0 0.00 1.36 1.36 81 1013.4
20260505093029 57 326 1.0 3.0 0.00 1.36 1.36 81 1013.4
20260505092526 56 326 2.0 3.0 0.00 1.36 1.36 81 1013.4
20260505092036 56 309 1.0 3.0 0.00 1.36 1.36 81 1013.5
20260505091238 56 292 1.0 4.0 0.00 1.36 1.36 81 1013.5
20260505091032 56 292 1.0 4.0 0.00 1.36 1.36 81 1013.5
20260505090237 56 8 1.0 2.0 0.00 1.36 1.36 81 1013.5
20260505085735 56 8 1.0 2.0 0.00 1.36 1.36 81 1013.5
20260505085519 56 8 1.0 3.0 0.00 1.36 1.36 81 1013.4
20260505084737 56 9 1.0 3.0 0.00 1.36 1.36 81 1013.4
20260505084234 55 347 1.0 2.0 0.00 1.36 1.36 81 1013.4
20260505083733 55 347 1.0 2.0 0.00 1.36 1.36 81 1013.3
20260505083512 55 347 1.0 3.0 0.00 1.36 1.36 81 1013.3
20260505082731 55 347 1.0 3.0 0.00 1.36 1.36 81 1013.2
20260505082229 55 29 1.0 2.0 0.00 1.36 1.36 81 1013.2
20260505081737 55 29 0.0 2.0 0.00 1.36 1.36 81 1013.1
20260505081230 55 29 1.0 3.0 0.01 1.36 1.36 81 1013.0
20260505080729 55 29 1.0 3.0 0.01 1.36 1.36 81 1013.1
20260505080230 55 30 0.0 3.0 0.01 1.36 1.36 81 1013.1
20260505075727 54 147 0.0 2.0 0.02 1.35 1.36 81 1013.2
20260505075225 54 147 1.0 3.0 0.02 1.35 1.36 81 1013.3
20260505074727 54 147 1.0 3.0 0.02 1.35 1.36 81 1013.4
20260505074220 54 148 1.0 3.0 0.02 1.35 1.36 81 1013.4
20260505074005 54 148 1.0 3.0 0.02 1.35 1.36 81 1013.4
20260505073521 54 75 0.0 2.0 0.04 1.35 1.36 81 1013.4
20260505072717 54 52 0.0 2.0 0.06 1.35 1.36 81 1013.4
20260505072217 54 52 1.0 2.0 0.10 1.35 1.36 81 1013.4
20260505071711 54 52 1.0 2.0 0.17 1.35 1.36 81 1013.3
20260505071455 54 52 1.0 2.0 0.25 1.35 1.35 80 1013.2
20260505070708 54 52 1.0 3.0 0.38 1.35 1.35 80 1013.2
20260505070209 53 354 2.0 5.0 0.41 1.35 1.35 80 1013.1
20260505065948 53 284 2.0 5.0 0.43 0.93 1.35 80 1013.2
20260505065208 53 283 2.0 5.0 0.46 0.93 1.35 80 1013.2
20260505064707 53 269 2.0 5.0 0.48 0.93 1.35 80 1013.2
20260505064528 53 272 1.0 5.0 0.49 0.93 1.33 80 1013.2
20260505064521 53 280 1.0 4.0 0.48 0.93 1.34 80 1013.1
20260505063207 53 43 1.0 5.0 0.47 0.93 1.31 80 1013.3
20260505063117 54 90 2.0 8.0 0.28 1.10 1.09 80 1013.0
20260505063108 54 63 2.0 8.0 0.36 0.93 1.18 80 1013.0
20260505062747 54 61 2.0 4.0 0.44 0.93 1.28 80 1013.2
20260505062651 54 60 2.0 6.0 0.41 0.93 1.24 80 1013.1
20260505060705 54 295 2.0 3.0 0.18 0.98 0.97 80 1012.8
20260505060500 54 4 2.0 3.0 0.17 0.94 0.94 80 1012.5
20260505055654 54 8 2.0 4.0 0.17 0.91 0.91 80 1012.3
20260505055148 54 354 2.0 4.0 0.29 0.88 0.87 80 1012.2
20260505054638 54 324 2.0 3.0 0.29 0.87 0.87 80 1012.1
20260505054138 54 322 2.0 3.0 0.30 0.86 0.86 79 1012.1
20260505053638 54 354 1.0 3.0 0.31 0.85 0.85 79 1012.1
20260505053137 54 260 2.0 3.0 0.31 0.85 0.85 79 1012.0
20260505052638 54 298 2.0 5.0 0.32 0.84 0.84 79 1012.0
20260505052138 54 322 2.0 5.0 0.35 0.84 0.83 79 1012.0
20260505051633 54 314 2.0 10.0 0.38 0.83 0.83 79 1012.0
20260505051132 53 359 2.0 10.0 0.43 0.82 0.81 79 1012.1
20260505050631 53 88 2.0 5.0 0.40 0.80 0.79 79 1012.3
20260505050131 53 293 1.0 4.0 0.39 0.77 0.76 79 1012.4
20260505041633 53 303 2.0 3.0 0.22 0.45 0.44 77 1013.0
20260505041134 53 339 2.0 3.0 0.17 0.39 0.39 77 1012.9
20260505040636 53 314 1.0 3.0 0.17 0.39 0.39 77 1012.8
20260505040134 53 289 2.0 4.0 0.16 0.38 0.38 76 1012.7
20260505035633 53 321 2.0 4.0 0.14 0.36 0.36 76 1012.6
20260505035135 53 295 3.0 5.0 0.14 0.35 0.35 76 1012.7
20260505034629 53 21 3.0 5.0 0.12 0.31 0.31 76 1013.0
20260505034136 53 331 3.0 8.0 0.10 0.28 0.28 76 1013.1
20260505033628 53 343 3.0 8.0 0.10 0.27 0.26 75 1013.2
20260505033127 53 299 3.0 4.0 0.10 0.24 0.24 75 1013.3
20260505032625 53 354 2.0 4.0 0.09 0.23 0.23 75 1013.3
20260505032124 53 354 2.0 4.0 0.11 0.23 0.23 75 1013.3
20260505031625 53 19 2.0 4.0 0.12 0.23 0.23 75 1013.4
20260505031123 53 4 2.0 3.0 0.13 0.23 0.23 75 1013.4
20260505030624 53 4 2.0 3.0 0.14 0.23 0.23 75 1013.6
20260505030122 53 20 1.0 3.0 0.14 0.22 0.22 75 1013.6
20260505025622 53 354 1.0 3.0 0.15 0.22 0.22 74 1013.7
20260505025113 53 40 1.0 3.0 0.15 0.21 0.21 75 1013.8
20260505024613 53 51 1.0 3.0 0.13 0.20 0.20 74 1013.9
20260505024113 53 22 1.0 2.0 0.13 0.18 0.17 74 1014.1
20260505023612 53 359 1.0 2.0 0.11 0.17 0.16 74 1014.1
20260505023112 53 359 2.0 3.0 0.09 0.14 0.14 74 1014.1
20260505022608 53 4 1.0 4.0 0.08 0.13 0.13 74 1014.3
20260505022349 53 4 2.0 4.0 0.08 0.12 0.12 74 1014.3
20260505021611 54 318 1.0 4.0 0.08 0.11 0.11 74 1014.4
20260505021109 54 338 1.0 3.0 0.07 0.09 0.09 74 1014.5
20260505020609 54 338 2.0 4.0 0.07 0.09 0.09 74 1014.5
20260505020356 54 319 2.0 4.0 0.07 0.08 0.08 74 1014.5
20260505015612 54 354 2.0 3.0 0.06 0.07 0.07 74 1014.6
20260505015112 54 316 2.0 3.0 0.06 0.06 0.06 74 1014.6
20260505014612 54 354 2.0 3.0 0.06 0.06 0.06 74 1014.7
20260505014111 54 22 2.0 4.0 0.06 0.06 0.06 74 1014.7
20260505013615 54 354 2.0 5.0 0.06 0.06 0.06 75 1014.8
20260505013111 54 8 3.0 5.0 0.05 0.05 0.05 75 1014.9
20260505012814 55 331 2.0 5.0 0.04 0.04 0.04 76 1015.1
20260505012807 55 341 2.0 4.0 0.03 0.03 0.03 77 1015.2
20260505012800 56 292 2.0 4.0 0.02 0.02 0.02 76 1015.4
20260505012736 55 323 3.0 5.0 0.05 0.05 0.05 76 1015.0
20260505011939 55 52 2.0 4.0 0.02 0.02 0.02 76 1015.3
20260505010114 56 336 1.0 3.0 0.01 0.01 0.01 75 1015.5
20260505005847 56 332 2.0 3.0 0.01 0.01 0.01 75 1015.6
20260505005111 57 338 1.0 3.0 0.00 0.00 0.00 74 1015.7
20260505004606 57 327 1.0 3.0 0.00 0.00 0.00 73 1015.9
20260505004110 57 328 1.0 3.0 0.00 0.00 0.00 73 1015.9
20260505003608 57 329 1.0 3.0 0.00 0.00 0.00 73 1016.0
20260505003343 58 316 1.0 3.0 0.00 0.00 0.00 71 1016.0
20260505002606 58 315 1.0 3.0 0.00 0.00 0.00 70 1016.0
20260505002105 58 40 1.0 4.0 0.00 0.00 0.00 69 1016.0
20260505001609 58 40 1.0 4.0 0.00 0.00 0.00 69 1016.1
20260505001106 58 218 0.0 3.0 0.00 0.00 0.00 69 1016.2
20260505000607 58 349 1.0 3.0 0.00 0.00 0.00 69 1016.3
20260505000111 58 312 1.0 3.0 0.00 0.00 0.00 69 1016.3
20260504235610 58 77 1.0 3.0 0.00 0.00 0.00 69 1016.5
20260504235341 58 4 1.0 4.0 0.00 0.00 0.00 69 1016.6
20260504234845 58 48 1.0 4.0 0.00 0.00 0.00 69 1016.6
20260504234353 58 287 1.0 4.0 0.00 0.00 0.00 70 1016.7
20260504233641 58 12 1.0 3.0 0.00 0.00 0.00 70 1016.9
20260504233624 58 10 1.0 2.0 0.00 0.00 0.00 70 1016.9
20260504232621 58 10 1.0 3.0 0.00 0.00 0.00 70 1017.0
20260504232349 58 214 1.0 4.0 0.00 0.00 0.00 70 1017.0
20260504231844 58 188 1.0 4.0 0.00 0.00 0.00 69 1017.2
20260504231119 58 345 1.0 3.0 0.00 0.00 0.00 70 1017.3
20260504230607 58 79 1.0 2.0 0.00 0.00 0.00 70 1017.3
20260504230107 58 8 1.0 3.0 0.00 0.00 0.00 70 1017.4